Location: Irma
(52.9170°N, 111.2330°W)
Time: 22:12:35
(UTC-06:00)

Cosmos 1633 Rocket - Visible Passes

Search period start: 28 May 2015 00:00
Search period end: 07 June 2015 00:00
Orbit: 608 x 625 km, 82.5° (Epoch: 27 May)

Date Brightness Start Highest point End Pass type
(mag) Time Alt. Az. Time Alt. Az. Time Alt. Az.
28 May 5.2 00:33:13 11° ESE 00:35:26 15° E 00:38:02 10° NE visible
28 May 3.1 02:10:19 26° SSW 02:12:44 74° WNW 02:17:09 10° N visible
28 May 5.4 03:49:43 10° W 03:51:30 12° NW 03:53:08 10° NNW visible
29 May 4.6 00:49:36 16° SE 00:51:45 24° E 00:55:19 10° NNE visible
29 May 3.7 02:26:41 20° SW 02:29:23 45° WNW 02:33:36 10° N visible
30 May 3.9 01:05:57 23° SE 01:08:08 39° E 01:12:15 10° NNE visible
30 May 4.5 02:43:03 14° WSW 02:46:07 28° WNW 02:49:55 10° N visible
31 May 3.2 01:22:18 27° S 01:24:36 65° E 01:28:58 10° NNE visible
31 May 5.1 02:59:49 10° WSW 03:02:57 19° WNW 03:06:01 10° NNW visible
01 Jun 5.2 00:01:33 10° ESE 00:03:51 15° E 00:06:23 10° NE visible
01 Jun 3.1 01:38:38 25° SSW 01:41:08 76° WNW 01:45:33 10° N visible
01 Jun 5.5 03:17:59 10° W 03:19:53 12° NW 03:21:38 10° NNW visible
02 Jun 4.6 00:17:53 16° SE 00:20:10 24° E 00:23:42 10° NE visible
02 Jun 3.8 01:54:58 19° SW 01:57:46 46° WNW 02:02:01 10° N visible
03 Jun 3.9 00:34:11 21° SSE 00:36:32 38° E 00:40:38 10° NNE visible
03 Jun 4.5 02:11:17 13° SW 02:14:30 29° WNW 02:18:20 10° N visible
04 Jun 3.2 00:50:29 24° S 00:52:59 64° E 00:57:21 10° NNE visible
04 Jun 5.1 02:28:08 10° WSW 02:31:19 19° WNW 02:34:26 10° NNW visible
04 Jun 5.1 23:29:55 10° ESE 23:32:15 15° E 23:34:45 10° NE visible
05 Jun 3.1 01:06:46 22° SSW 01:09:31 78° WNW 01:13:57 10° N visible
05 Jun 5.5 02:46:16 10° W 02:48:15 13° NW 02:50:06 10° NNW visible
05 Jun 4.5 23:45:57 14° SE 23:48:34 23° E 23:52:05 10° NE visible
06 Jun 3.8 01:23:02 17° SW 01:26:09 47° WNW 01:30:25 10° N visible
